This is the latest recevied weather packets stored in our database for station/object W0WC. If no packets are shown the sender has not sent any weather packets the latest 10 day(s).
| Time | Temp. | Humidity | Pressure | Rain* | Wind** | Luminosity | Snow |
|---|---|---|---|---|---|---|---|
| 1777425593 | 12.78° C | 96% | 1014.8 hPa | 0 mm | - | 0 W/m² | - |
| 1777425289 | 12.78° C | 96% | 1014.7 hPa | 0 mm | - | 0 W/m² | - |
| 1777424986 | 12.78° C | 96% | 1014.8 hPa | 0 mm | - | 1 W/m² | - |
| 1777424682 | 12.78° C | 96% | 1014.6 hPa | 0 mm | - | 1 W/m² | - |
| 1777424376 | 12.78° C | 96% | 1014.5 hPa | 0 mm | - | 1 W/m² | - |
| 1777424072 | 12.78° C | 96% | 1014.4 hPa | 0 mm | - | 1 W/m² | - |
| 1777423771 | 12.78° C | 96% | 1014.4 hPa | 0 mm | - | 2 W/m² | - |
| 1777423466 | 12.78° C | 95% | 1014.1 hPa | 0 mm | - | 2 W/m² | - |
| 1777423161 | 12.78° C | 95% | 1014.2 hPa | 0 mm | - | 3 W/m² | - |
| 1777422855 | 12.78° C | 95% | 1014.1 hPa | 0 mm | - | 4 W/m² | - |
| 1777422551 | 12.78° C | 95% | 1014.2 hPa | 0 mm | - | 6 W/m² | - |
| 1777422248 | 12.78° C | 95% | 1014.2 hPa | 0 mm | - | 7 W/m² | - |
| 1777421947 | 12.78° C | 95% | 1013.9 hPa | 0 mm | - | 10 W/m² | - |
| 1777421642 | 12.78° C | 95% | 1013.8 hPa | 0 mm | - | 12 W/m² | - |
| 1777421337 | 12.78° C | 95% | 1013.7 hPa | 0 mm | - | 14 W/m² | - |
| 1777421034 | 12.78° C | 95% | 1013.6 hPa | 0 mm | - | 15 W/m² | - |
| 1777420730 | 12.78° C | 94% | 1013.4 hPa | 0 mm | - | 18 W/m² | - |
| 1777420427 | 12.78° C | 95% | 1013.4 hPa | 0 mm | - | 13 W/m² | - |
| 1777420123 | 12.78° C | 94% | 1013.2 hPa | 0 mm | - | 21 W/m² | - |
| 1777419819 | 12.78° C | 94% | 1013.1 hPa | 0 mm | - | 20 W/m² | - |
| 1777419517 | 12.78° C | 94% | 1013 hPa | 0 mm | - | 24 W/m² | - |
| 1777419216 | 12.78° C | 93% | 1013.1 hPa | 0 mm | - | 22 W/m² | - |
| 1777418912 | 12.78° C | 93% | 1012.8 hPa | 0 mm | - | 18 W/m² | - |
| 1777418608 | 12.78° C | 93% | 1012.9 hPa | 0 mm | - | 21 W/m² | - |
| 1777418304 | 12.78° C | 93% | 1012.7 hPa | 0 mm | - | 21 W/m² | - |
* Rain latest hour (hover to see other rain measurements)
** Current wind speed in m/s (hover to see current wind gust speed)